Home   Weather   Fort Wayne   Past weeks

Flag for USA Past Weather in Fort Wayne, Indiana, USA — Yesterday and Last 2 Weeks

Now
35 °F

Drizzle. Fog.


Feels Like: 26 °F
Forecast: 35 / 40 °F
Wind: 14 mph from West

Location: Fort Wayne International Airport

Current Time: Jan 18, 2017 at 9:16:12 am

Latest Report: Jan 18, 2017 at 8:23 am


Visibility: 2 mi

Pressure: 30.11 "Hg

Humidity: 92%

Dew Point: 33 °F

Location of Fort WayneLocation

Past Weather in Fort Wayne — Graph

°F

Fort Wayne Temperature Yesterday

Maximum temperature yesterday: 51 °F (at 6:37 am)
Minimum temperature yesterday: 37 °F (at 11:54 pm)
Average temperature yesterday: 46 °F

High & Low Weather Summary for the Past Weeks

 TemperatureHumidityPressure
High57 °F (Jan 11, 9:54 pm)97% (Jan 16, 6:54 pm)30.75 "Hg (Jan 16, 6:54 pm)
Low0 °F (Jan 7, 5:54 am)55% (Jan 6, 2:54 pm)29.49 "Hg (Jan 10, 6:04 pm)
Average29 °F79%30.17 "Hg
* Reported Jan 3 7:38 am — Jan 18 7:54 am, Fort Wayne, Weather by CustomWeather, © 2017

Note: Actual official high and low records may vary slightly from our data, if they occured in-between our weather recording intervals... More about our weather records

Advertising

Fort Wayne Weather History for the Previous 24 Hours

Scroll right to see more
 ConditionsComfort  
Time TempWeatherWind HumidityBarometerVisibility
7:54 am
Wed, Jan 18
35 °FDrizzle. Fog.14 mph88%30.12 "Hg3 mi
6:54 am35 °FDrizzle. Fog.16 mph88%30.11 "Hg5 mi
5:54 am35 °FDrizzle. Fog.15 mph92%30.09 "Hg5 mi
4:54 am35 °FDrizzle. Fog.14 mph92%30.08 "Hg4 mi
3:54 am36 °FDrizzle. Fog.13 mph89%30.07 "Hg3 mi
2:54 am36 °FLight rain. Fog.14 mph89%30.06 "Hg4 mi
2:34 am36 °FLight rain. Fog.15 mph89%30.03 "Hg4 mi
2:06 am36 °FLight rain. Overcast.13 mph89%30.02 "Hg8 mi
12:54 am36 °FDrizzle. Mostly cloudy.17 mph89%30.01 "Hg7 mi
11:54 pm
Tue, Jan 17
37 °FLow clouds.18 mph89%30.01 "Hg9 mi
10:54 pm38 °FLow clouds.18 mph90%30.01 "Hg10 mi
10:06 pm39 °FLow clouds.18 mph89%29.98 "Hg8 mi
9:54 pm39 °FLow clouds.17 mph89%29.99 "Hg7 mi
8:54 pm40 °FMostly cloudy.17 mph89%29.98 "Hg10 mi
7:54 pm42 °FLight rain. Fog.17 mph89%29.98 "Hg4 mi
6:54 pm42 °FDrizzle. Fog.15 mph92%29.96 "Hg4 mi
5:54 pm42 °FDrizzle. Fog.15 mph92%29.93 "Hg4 mi
4:54 pm43 °FLow clouds.20 mph89%29.91 "Hg10 mi
3:54 pm44 °FDrizzle. Fog.14 mph89%29.91 "Hg2 mi
3:21 pm44 °FDrizzle. Fog.15 mph93%29.89 "Hg3 mi
2:54 pm44 °FDrizzle. Fog.17 mph93%29.89 "Hg2 mi
2:11 pm46 °FLow clouds.18 mph86%29.86 "Hg9 mi
1:54 pm47 °FLow clouds.17 mph86%29.86 "Hg10 mi
12:54 pm50 °FPartly sunny.17 mph80%29.84 "Hg10 mi
12:20 pm51 °FPartly sunny.20 mph77%29.84 "Hg10 mi
11:54 am50 °FPartly sunny.13 mph86%29.85 "Hg10 mi
11:19 am50 °FPartly sunny.15 mph86%29.85 "Hg10 mi
10:30 am48 °FLow clouds.17 mph86%29.85 "Hg10 mi
9:54 am48 °FPartly sunny.17 mph89%29.85 "Hg10 mi
9:19 am50 °FPartly sunny.22 mph86%29.82 "Hg10 mi
Weather by CustomWeather, © 2017

See weather overviewHow to use our weather pages